Showing default

KUIPER-00131, 68573

Orbit data source: Space-Track

KUIPER-00131, 68573 is a payload satellite owned by Kuiper Systems (US) in LEO that was launched on Sat, 04 Apr 2026 UTC via an ATLAS V 551 launch vehicle from the Air Force Eastern Test Range (AFETR). Payload-class satellites include a variety of spacecraft equipped with specific instruments for various scientific and technological missions. These include communications satellites like Starlink; space stations such as the ISS; scientific satellites like the Hubble; Earth observation satellites from companies like Planet Labs, Umbra, and HawkEye 360; GPS; miniature CubeSats for education and research; and military/defense satellites.

Loading next visibility...
Identifier
68573, 2026-072A
Orbit
LEO
Country
Flag of USUS
Related business
Manufacturer
Kuiper Systems
Mission
Operational spacecraft
Bus & Motor
KUIPER, Unknown motor
Mass
~490 kg wet, ~490 kg dry
Launch date (UTC)
2026-04-04 (1 month ago)
Launch vehicle
ATLAS V 551
Launch site
Air Force Eastern Test Range (AFETR)
Object type
Payload
Rocket body
Debris
Shape & HBR
Unknown shape, 3.4 m
Radar Cross Section
RCS unknown

Expand to show TLE details & history
Last TLE update: 5 hours ago

TLE from 5 hours ago
0 KUIPER-00131
1 68573U 26072A   26138.83335647 -.00046128  00000-0 -59458-2 0  9991
2 68573  51.9008 325.4543 0000500 160.9860 112.4067 14.80751806  4651
Epoch: 2026-05-18T20:00Z
TLE epoch observation values (Epoch: 2026-05-18T20:00:01.999Z)
Latitude
-51.92412°
Longitude
64.41432°
Altitude
644.984 km
Speed
7.535 km/s
True Right ascension
16h 03m 45s
True Declination
-51° 45' 16"
Sunlit
Object was in full shadow at epoch
Visualization orbit readout
Latitude
Unknown
Longitude
Unknown
Altitude
Unknown
Speed
Unknown
Apparent Right ascension
Unknown
Apparent Declination
Unknown
Sunlit
N/A
Visualization observer readout
Local Sidereal Time
10:00:05
Azimuth
Unknown
Elevation
Unknown
Doppler factor
Unknown
Orbital elements
Apogee altitude
627.754 km
Perigee altitude
627.053 km
Semi-major axis
7,005.54 km
Eccentricity
0.00005
Inclination
51.9008°
RAAN
325.4543°
Arg. of periapsis
160.986°
True anomaly
112.412°
Mean anomaly
112.4067°
Eccentric anomaly
112.40935°
Mean motion
3.70153 °/min
Orbital period
97.26 mins
BSTAR
-0.0059458
Loading maneuver chart data...
Computing Atmospheric mass density...
Loading historical data...
Loading historical data...
Loading historical data...
Loading historical data...
Loading historical data...
Loading historical data...
Loading historical data...

Documentation

Showing up to 5 results
|